Time,TemperatureF,DewpointF,PressureIn,WindDirection,WindDirectionDegrees,WindSpeedMPH,WindSpeedGustMPH,Humidity,HourlyPrecipIn,Conditions,Clouds,dailyrainin,SoftwareType,DateUTC
2013-03-11 00:03:00,34.3,32.2,30.27,SW,225,0.0,-999.0,92,-99.99,,,0.00,Acu-Link.com,2013-03-11 04:03:00,
2013-03-11 00:18:00,34.3,32.2,30.27,WSW,247,0.0,-999.0,92,-99.99,,,0.00,Acu-Link.com,2013-03-11 04:18:00,
2013-03-11 00:33:00,34.5,33.0,30.27,South,180,2.2,-999.0,94,-99.99,,,0.00,Acu-Link.com,2013-03-11 04:33:00,
2013-03-11 00:48:00,34.5,34.0,30.29,WSW,247,0.0,-999.0,98,-99.99,,,0.00,Acu-Link.com,2013-03-11 04:48:00,
2013-03-11 01:03:00,34.7,33.9,30.29,SSW,202,1.1,-999.0,97,-99.99,,,0.00,Acu-Link.com,2013-03-11 05:03:00,
2013-03-11 01:18:00,34.9,34.4,30.28,SSW,202,1.7,-999.0,98,-99.99,,,0.00,Acu-Link.com,2013-03-11 05:18:00,
2013-03-11 01:33:00,34.9,34.4,30.28,SSW,202,4.2,-999.0,98,-99.99,,,0.00,Acu-Link.com,2013-03-11 05:33:00,
2013-03-11 01:49:00,34.9,34.4,30.29,WSW,247,1.7,-999.0,98,-99.99,,,0.00,Acu-Link.com,2013-03-11 05:49:00,
2013-03-11 02:04:00,34.9,34.4,30.29,SSW,202,2.2,-999.0,98,-99.99,,,0.00,Acu-Link.com,2013-03-11 06:04:00,
2013-03-11 02:19:00,34.9,34.4,30.28,South,180,2.7,-999.0,98,-99.99,,,0.00,Acu-Link.com,2013-03-11 06:19:00,
2013-03-11 02:34:00,34.7,34.2,30.28,East,90,0.0,-999.0,98,-99.99,,,0.00,Acu-Link.com,2013-03-11 06:34:00,
2013-03-11 02:49:00,34.7,34.2,30.26,SSW,202,1.1,-999.0,98,-99.99,,,0.00,Acu-Link.com,2013-03-11 06:49:00,
2013-03-11 03:04:00,34.7,34.2,30.26,SSW,202,0.0,-999.0,98,-99.99,,,0.00,Acu-Link.com,2013-03-11 07:04:00,
2013-03-11 03:19:00,34.7,34.2,30.24,SSW,202,0.0,-999.0,98,-99.99,,,0.00,Acu-Link.com,2013-03-11 07:19:00,
2013-03-11 03:34:00,34.7,34.2,30.26,SW,225,0.0,-999.0,98,-99.99,,,0.00,Acu-Link.com,2013-03-11 07:34:00,
2013-03-11 03:49:00,34.7,34.2,30.26,South,180,3.2,-999.0,98,-99.99,,,0.00,Acu-Link.com,2013-03-11 07:49:00,
2013-03-11 04:05:00,34.5,34.0,30.25,SSW,202,0.0,-999.0,98,-99.99,,,0.00,Acu-Link.com,2013-03-11 08:05:00,
2013-03-11 04:20:00,34.5,34.0,30.25,SW,225,0.0,-999.0,98,-99.99,,,0.00,Acu-Link.com,2013-03-11 08:20:00,
2013-03-11 04:35:00,34.5,34.0,30.25,SW,225,0.0,-999.0,98,-99.99,,,0.00,Acu-Link.com,2013-03-11 08:35:00,
2013-03-11 04:50:00,34.5,34.0,30.24,SW,225,0.0,-999.0,98,-99.99,,,0.00,Acu-Link.com,2013-03-11 08:50:00,
2013-03-11 05:05:00,34.5,34.0,30.24,SW,225,1.7,-999.0,98,-99.99,,,0.00,Acu-Link.com,2013-03-11 09:05:00,
2013-03-11 05:20:00,34.5,34.0,30.23,South,180,2.2,-999.0,98,-99.99,,,0.00,Acu-Link.com,2013-03-11 09:20:00,
2013-03-11 05:35:00,34.5,34.0,30.23,SSW,202,0.0,-999.0,98,-99.99,,,0.00,Acu-Link.com,2013-03-11 09:35:00,
2013-03-11 05:50:00,34.3,33.8,30.23,SSW,202,0.0,-999.0,98,-99.99,,,0.00,Acu-Link.com,2013-03-11 09:50:00,
2013-03-11 06:05:00,34.5,34.0,30.25,South,180,1.7,-999.0,98,-99.99,,,0.00,Acu-Link.com,2013-03-11 10:05:00,
2013-03-11 06:21:00,34.7,34.2,30.25,WSW,247,2.7,-999.0,98,-99.99,,,0.00,Acu-Link.com,2013-03-11 10:21:00,
2013-03-11 06:36:00,34.7,34.2,30.24,SSW,202,2.2,-999.0,98,-99.99,,,0.00,Acu-Link.com,2013-03-11 10:36:00,
2013-03-11 06:51:00,34.9,34.4,30.24,SSW,202,0.0,-999.0,98,-99.99,,,0.00,Acu-Link.com,2013-03-11 10:51:00,
2013-03-11 07:06:00,35.2,34.7,30.23,South,180,3.7,-999.0,98,-99.99,,,0.00,Acu-Link.com,2013-03-11 11:06:00,
2013-03-11 07:21:00,35.2,34.7,30.23,SSW,202,0.0,-999.0,98,-99.99,,,0.00,Acu-Link.com,2013-03-11 11:21:00,
2013-03-11 07:52:00,35.6,35.1,30.23,South,180,0.0,-999.0,98,-99.99,,,0.00,Acu-Link.com,2013-03-11 11:52:00,
2013-03-11 08:07:00,36.1,35.6,30.23,SW,225,0.0,-999.0,98,-99.99,,,0.00,Acu-Link.com,2013-03-11 12:07:00,
2013-03-11 08:22:00,37.2,36.7,30.23,South,180,2.7,-999.0,98,-99.99,,,0.00,Acu-Link.com,2013-03-11 12:22:00,
2013-03-11 08:37:00,38.3,36.5,30.23,South,180,3.2,-999.0,93,-99.99,,,0.00,Acu-Link.com,2013-03-11 12:37:00,
2013-03-11 09:07:00,39.9,37.2,30.23,South,180,1.7,-999.0,90,-99.99,,,0.00,Acu-Link.com,2013-03-11 13:07:00,
2013-03-11 09:22:00,39.9,36.9,30.24,SSW,202,2.7,-999.0,89,-99.99,,,0.00,Acu-Link.com,2013-03-11 13:22:00,
2013-03-11 09:37:00,40.8,37.5,30.23,SSW,202,2.7,-999.0,88,-99.99,,,0.00,Acu-Link.com,2013-03-11 13:37:00,
2013-03-11 09:52:00,42.1,37.9,30.24,SE,135,3.2,-999.0,85,-99.99,,,0.00,Acu-Link.com,2013-03-11 13:52:00,
2013-03-11 10:08:00,43.5,38.7,30.24,SSW,202,2.7,-999.0,83,-99.99,,,0.00,Acu-Link.com,2013-03-11 14:08:00,
2013-03-11 10:23:00,44.4,38.3,30.24,South,180,4.7,-999.0,79,-99.99,,,0.00,Acu-Link.com,2013-03-11 14:23:00,
2013-03-11 10:53:00,48.4,40.8,30.24,ESE,112,1.7,-999.0,75,-99.99,,,0.00,Acu-Link.com,2013-03-11 14:53:00,
2013-03-11 11:08:00,53.2,42.1,30.24,SSW,202,1.7,-999.0,66,-99.99,,,0.00,Acu-Link.com,2013-03-11 15:08:00,
2013-03-11 11:23:00,52.9,40.7,30.23,SSE,157,3.2,-999.0,63,-99.99,,,0.00,Acu-Link.com,2013-03-11 15:23:00,
2013-03-11 11:38:00,48.9,39.2,30.23,SSE,157,3.7,-999.0,69,-99.99,,,0.00,Acu-Link.com,2013-03-11 15:38:00,
2013-03-11 11:54:00,52.2,40.4,30.23,NW,315,2.7,-999.0,64,-99.99,,,0.00,Acu-Link.com,2013-03-11 15:54:00,
2013-03-11 12:09:00,50.7,39.4,30.23,SSW,202,3.7,-999.0,65,-99.99,,,0.00,Acu-Link.com,2013-03-11 16:09:00,
2013-03-11 12:24:00,52.9,40.7,30.23,South,180,3.2,-999.0,63,-99.99,,,0.00,Acu-Link.com,2013-03-11 16:24:00,
2013-03-11 12:39:00,50.0,39.5,30.22,South,180,4.2,-999.0,67,-99.99,,,0.00,Acu-Link.com,2013-03-11 16:39:00,
2013-03-11 12:54:00,50.9,40.7,30.22,South,180,2.7,-999.0,68,-99.99,,,0.00,Acu-Link.com,2013-03-11 16:54:00,
2013-03-11 13:09:00,50.5,40.0,30.20,South,180,3.2,-999.0,67,-99.99,,,0.00,Acu-Link.com,2013-03-11 17:09:00,
2013-03-11 13:24:00,51.3,41.1,30.19,SW,225,1.7,-999.0,68,-99.99,,,0.00,Acu-Link.com,2013-03-11 17:24:00,
2013-03-11 13:39:00,52.5,40.7,30.19,NNW,337,5.8,-999.0,64,-99.99,,,0.00,Acu-Link.com,2013-03-11 17:39:00,
2013-03-11 13:54:00,51.6,41.0,30.18,South,180,1.1,-999.0,67,-99.99,,,0.00,Acu-Link.com,2013-03-11 17:54:00,
2013-03-11 14:10:00,54.3,41.1,30.19,NNW,337,2.7,-999.0,61,-99.99,,,0.00,Acu-Link.com,2013-03-11 18:10:00,
2013-03-11 14:25:00,54.3,41.1,30.18,SSW,202,2.2,-999.0,61,-99.99,,,0.00,Acu-Link.com,2013-03-11 18:25:00,
2013-03-11 14:40:00,54.0,40.4,30.16,SSW,202,2.2,-999.0,60,-99.99,,,0.00,Acu-Link.com,2013-03-11 18:40:00,
2013-03-11 14:55:00,54.3,41.1,30.16,South,180,4.7,-999.0,61,-99.99,,,0.00,Acu-Link.com,2013-03-11 18:55:00,
2013-03-11 15:10:00,54.3,40.3,30.16,WSW,247,3.7,-999.0,59,-99.99,,,0.00,Acu-Link.com,2013-03-11 19:10:00,
2013-03-11 15:25:00,54.0,40.9,30.16,South,180,2.2,-999.0,61,-99.99,,,0.00,Acu-Link.com,2013-03-11 19:25:00,
2013-03-11 15:40:00,54.3,41.1,30.16,SSW,202,3.2,-999.0,61,-99.99,,,0.00,Acu-Link.com,2013-03-11 19:40:00,
2013-03-11 15:55:00,53.4,40.3,30.16,South,180,2.2,-999.0,61,-99.99,,,0.00,Acu-Link.com,2013-03-11 19:55:00,
2013-03-11 16:10:00,52.9,41.1,30.15,SW,225,2.7,-999.0,64,-99.99,,,0.00,Acu-Link.com,2013-03-11 20:10:00,
2013-03-11 16:26:00,52.3,41.3,30.15,SSW,202,2.7,-999.0,66,-99.99,,,0.00,Acu-Link.com,2013-03-11 20:26:00,
2013-03-11 16:41:00,51.6,41.0,30.14,South,180,3.7,-999.0,67,-99.99,,,0.00,Acu-Link.com,2013-03-11 20:41:00,
2013-03-11 17:41:00,48.6,40.0,30.13,South,180,2.7,-999.0,72,-99.99,,,0.00,Acu-Link.com,2013-03-11 21:41:00,
2013-03-11 17:56:00,47.7,40.2,30.13,South,180,2.7,-999.0,75,-99.99,,,0.00,Acu-Link.com,2013-03-11 21:56:00,
2013-03-11 18:11:00,46.9,41.4,30.13,South,180,4.2,-999.0,81,-99.99,,,0.00,Acu-Link.com,2013-03-11 22:11:00,
2013-03-11 18:26:00,45.9,41.0,30.13,South,180,1.1,-999.0,83,-99.99,,,0.00,Acu-Link.com,2013-03-11 22:26:00,
2013-03-11 18:42:00,45.1,41.2,30.13,SSE,157,2.2,-999.0,86,-99.99,,,0.00,Acu-Link.com,2013-03-11 22:42:00,
2013-03-11 18:57:00,44.4,41.1,30.13,South,180,0.0,-999.0,88,-99.99,,,0.00,Acu-Link.com,2013-03-11 22:57:00,
2013-03-11 19:12:00,43.7,41.0,30.13,South,180,0.0,-999.0,90,-99.99,,,0.00,Acu-Link.com,2013-03-11 23:12:00,
2013-03-11 19:27:00,43.3,41.1,30.13,SSW,202,2.2,-999.0,92,-99.99,,,0.00,Acu-Link.com,2013-03-11 23:27:00,
2013-03-11 19:42:00,43.3,41.1,30.13,SSE,157,2.2,-999.0,92,-99.99,,,0.00,Acu-Link.com,2013-03-11 23:42:00,
2013-03-11 19:57:00,42.8,42.0,30.12,South,180,2.2,-999.0,97,-99.99,,,0.00,Acu-Link.com,2013-03-11 23:57:00,
2013-03-11 20:12:00,42.8,42.3,30.12,SW,225,0.0,-999.0,98,-99.99,,,0.00,Acu-Link.com,2013-03-12 00:12:00,
2013-03-11 20:27:00,42.1,41.6,30.13,SW,225,0.0,-999.0,98,-99.99,,,0.00,Acu-Link.com,2013-03-12 00:27:00,
2013-03-11 20:42:00,41.9,41.4,30.12,SSW,202,1.1,-999.0,98,-99.99,,,0.00,Acu-Link.com,2013-03-12 00:42:00,
2013-03-11 20:58:00,41.9,41.4,30.13,SW,225,0.0,-999.0,98,-99.99,,,0.00,Acu-Link.com,2013-03-12 00:58:00,
2013-03-11 21:13:00,41.7,41.2,30.12,SSW,202,0.0,-999.0,98,-99.99,,,0.00,Acu-Link.com,2013-03-12 01:13:00,
2013-03-11 21:28:00,41.5,41.0,30.12,SSE,157,0.0,-999.0,98,-99.99,,,0.00,Acu-Link.com,2013-03-12 01:28:00,
2013-03-11 21:43:00,41.2,40.7,30.12,East,90,0.0,-999.0,98,-99.99,,,0.00,Acu-Link.com,2013-03-12 01:43:00,
2013-03-11 21:58:00,40.6,40.1,30.11,North,0,0.0,-999.0,98,-99.99,,,0.00,Acu-Link.com,2013-03-12 01:58:00,
2013-03-11 22:13:00,40.3,39.8,30.11,NNW,337,0.0,-999.0,98,-99.99,,,0.00,Acu-Link.com,2013-03-12 02:13:00,
2013-03-11 22:28:00,39.9,39.4,30.11,East,90,0.0,-999.0,98,-99.99,,,0.00,Acu-Link.com,2013-03-12 02:28:00,
2013-03-11 22:43:00,39.4,38.9,30.11,ESE,112,0.0,-999.0,98,-99.99,,,0.00,Acu-Link.com,2013-03-12 02:43:00,
2013-03-11 22:58:00,39.0,38.5,30.11,NNE,22,0.0,-999.0,98,-99.99,,,0.00,Acu-Link.com,2013-03-12 02:58:00,
2013-03-11 23:14:00,38.7,38.2,30.12,East,90,0.0,-999.0,98,-99.99,,,0.00,Acu-Link.com,2013-03-12 03:14:00,
2013-03-11 23:29:00,38.1,37.6,30.11,SW,225,0.0,-999.0,98,-99.99,,,0.00,Acu-Link.com,2013-03-12 03:29:00,
2013-03-11 23:44:00,38.1,37.6,30.11,SSW,202,0.0,-999.0,98,-99.99,,,0.00,Acu-Link.com,2013-03-12 03:44:00,
2013-03-11 23:59:00,37.9,37.4,30.10,ENE,67,0.0,-999.0,98,-99.99,,,0.00,Acu-Link.com,2013-03-12 03:59:00,